Madison, SD

6:55 PM CST on December 12, 2017 (GMT -0600)
Madison Municipal

Weather History for KMDS - April, 2013

Change the Weather History Date:

Monday, April 29, 2013

  Actual Average Record
Temperature  
Mean Temperature 55 °F -  
Max Temperature 73 °F 63 °F 73 °F (2013)
Min Temperature 37 °F 39 °F 30 °F (2017)
Degree Days  
Heating Degree Days 10    
Growing Degree Days 5 (Base 50)    
Moisture  
Dew Point 35 °F    
Average Humidity 46    
Maximum Humidity 70    
Minimum Humidity 27    
Precipitation  
Precipitation 0.00 in - - ()
Sea Level Pressure  
Sea Level Pressure 29.69 in    
Wind  
Wind Speed 12 mph (ESE)    
Max Wind Speed 18 mph    
Max Gust Speed 25 mph    
Visibility 10 miles    
Events      
Averages and records for this station are not official NWS values.
T = Trace of Precipitation, MM = Missing Value Source: NWS Daily Summary

Daily Weather History Graph

Daily Weather History Graph

Search for Another Location

Airport or City:

Trip Planner

Search our weather history database for the weather conditions in past years. The results will help you decide how hot, cold, wet, or windy it might be!

Date:

Astronomy

Apr. 29, 2013 Rise Set
Actual Time 6:22 AM CDT 8:29 PM CDT
Civil Twilight 5:50 AM CDT 9:01 PM CDT
Nautical Twilight 5:12 AM CDT 9:40 PM CDT
Astronomical Twilight 4:29 AM CDT 10:23 PM CDT
Moon 12:03 AM CDT (4/29) 9:41 AM CDT (4/29)
Length of Visible Light 15h 10m
Length of Day
14h 07m
Waning Gibbous, 80% of the Moon is Illuminated
Apr 29
Waning Gibbous
May 2
Last Quarter
May 9
New
May 17
First Quarter
May 24
Full

Hourly Weather History & Observations

Time (CDT) Temp. Windchill Dew Point Humidity Pressure Visibility Wind Dir Wind Speed Gust Speed Precip Events Conditions
12:15 AM 50.0 °F - 39.2 °F 66% 29.84 in 10.0 mi NNE 16.1 mph - N/A   Partly Cloudy
12:55 AM 48.2 °F - 37.4 °F 66% 29.86 in 10.0 mi NE 13.8 mph 20.7 mph N/A   Clear
1:15 AM 46.4 °F 40.4 °F 33.8 °F 62% 29.86 in 10.0 mi NNE 13.8 mph - N/A   Clear
1:35 AM 46.4 °F 40.4 °F 32.0 °F 57% 29.86 in 10.0 mi NE 13.8 mph - N/A   Clear
1:55 AM 44.6 °F 39.7 °F 32.0 °F 61% 29.87 in 10.0 mi NNE 9.2 mph - N/A   Clear
2:15 AM 42.8 °F 37.5 °F 32.0 °F 66% 29.86 in 10.0 mi NNE 9.2 mph - N/A   Partly Cloudy
2:35 AM 41.0 °F 34.7 °F 32.0 °F 70% 29.86 in 10.0 mi NNE 10.4 mph - N/A   Scattered Clouds
2:55 AM 41.0 °F 34.3 °F 26.6 °F 57% 29.85 in 10.0 mi NNE 11.5 mph - N/A   Mostly Cloudy
3:15 AM 41.0 °F 34.7 °F 26.6 °F 57% 29.85 in 10.0 mi NNE 10.4 mph - N/A   Partly Cloudy
3:35 AM 41.0 °F 33.9 °F 26.6 °F 57% 29.84 in 10.0 mi NNE 12.7 mph 17.3 mph N/A   Clear
3:55 AM 41.0 °F 34.3 °F 26.6 °F 57% 29.85 in 10.0 mi NNE 11.5 mph - N/A   Clear
4:15 AM 41.0 °F 34.3 °F 26.6 °F 57% 29.84 in 10.0 mi NNE 11.5 mph - N/A   Scattered Clouds
4:35 AM 41.0 °F 33.5 °F 26.6 °F 57% 29.85 in 10.0 mi NNE 13.8 mph - N/A   Partly Cloudy
4:55 AM 41.0 °F 33.9 °F 26.6 °F 57% 29.85 in 10.0 mi NNE 12.7 mph - N/A   Partly Cloudy
5:15 AM 39.2 °F 33.0 °F 26.6 °F 61% 29.86 in 10.0 mi NE 9.2 mph - N/A   Scattered Clouds
5:35 AM 39.2 °F 32.5 °F 28.4 °F 65% 29.86 in 10.0 mi NE 10.4 mph - N/A   Partly Cloudy
5:55 AM 39.2 °F 32.0 °F 28.4 °F 65% 29.85 in 10.0 mi NE 11.5 mph - N/A   Clear
6:15 AM 37.4 °F 30.8 °F 28.4 °F 70% 29.84 in 10.0 mi NE 9.2 mph - N/A   Clear
6:35 AM 37.4 °F 29.8 °F 28.4 °F 70% 29.83 in 10.0 mi NE 11.5 mph - N/A   Clear
6:55 AM 39.2 °F 33.6 °F 28.4 °F 65% 29.83 in 10.0 mi NE 8.1 mph - N/A   Clear
7:15 AM 39.2 °F 34.2 °F 28.4 °F 65% 29.84 in 10.0 mi East 6.9 mph - N/A   Clear
7:35 AM 41.0 °F 35.2 °F 28.4 °F 61% 29.83 in 10.0 mi ENE 9.2 mph - N/A   Clear
7:55 AM 41.0 °F 35.2 °F 30.2 °F 65% 29.83 in 10.0 mi ENE 9.2 mph - N/A   Clear
8:15 AM 44.6 °F 39.7 °F 30.2 °F 57% 29.82 in 10.0 mi East 9.2 mph - N/A   Clear
8:35 AM 46.4 °F 40.7 °F 30.2 °F 53% 29.82 in 10.0 mi East 12.7 mph - N/A   Clear
8:55 AM 48.2 °F - 32.0 °F 54% 29.81 in 10.0 mi East 13.8 mph 19.6 mph N/A   Clear
9:15 AM 50.0 °F - 30.2 °F 47% 29.80 in 10.0 mi ESE 15.0 mph - N/A   Clear
9:35 AM 51.8 °F - 28.4 °F 41% 29.80 in 10.0 mi East 13.8 mph 17.3 mph N/A   Clear
9:55 AM 53.6 °F - 28.4 °F 38% 29.79 in 10.0 mi East 11.5 mph - N/A   Clear
10:15 AM 55.4 °F - 28.4 °F 36% 29.78 in 10.0 mi East 12.7 mph 17.3 mph N/A   Clear
10:35 AM 57.2 °F - 28.4 °F 33% 29.77 in 10.0 mi East 11.5 mph 17.3 mph N/A   Clear
10:55 AM 59.0 °F - 30.2 °F 34% 29.76 in 10.0 mi ESE 12.7 mph 21.9 mph N/A   Clear
11:15 AM 62.6 °F - 32.0 °F 32% 29.75 in 10.0 mi ESE 11.5 mph - N/A   Clear
11:35 AM 62.6 °F - 30.2 °F 30% 29.74 in 10.0 mi ESE 11.5 mph - N/A   Clear
11:55 AM 64.4 °F - 32.0 °F 30% 29.73 in 10.0 mi ESE 11.5 mph 19.6 mph N/A   Clear
12:15 PM 64.4 °F - 35.6 °F 34% 29.72 in 10.0 mi SE 12.7 mph 18.4 mph N/A   Clear
12:35 PM 66.2 °F - 37.4 °F 35% 29.71 in 10.0 mi SE 12.7 mph 18.4 mph N/A   Clear
12:55 PM 66.2 °F - 37.4 °F 35% 29.70 in 10.0 mi ESE 10.4 mph 25.3 mph N/A   Clear
1:15 PM 68.0 °F - 39.2 °F 35% 29.68 in 10.0 mi SSE 15.0 mph 19.6 mph N/A   Clear
1:35 PM 68.0 °F - 37.4 °F 33% 29.68 in 10.0 mi South 11.5 mph 17.3 mph N/A   Clear
1:55 PM 68.0 °F - 37.4 °F 33% 29.68 in 10.0 mi SSE 10.4 mph 17.3 mph N/A   Clear
2:15 PM 69.8 °F - 37.4 °F 31% 29.67 in 10.0 mi SSE 11.5 mph 19.6 mph N/A   Clear
2:35 PM 71.6 °F - 39.2 °F 31% 29.65 in 10.0 mi SSE 12.7 mph 19.6 mph N/A   Clear
2:55 PM 71.6 °F - 39.2 °F 31% 29.63 in 10.0 mi SSE 13.8 mph 19.6 mph N/A   Clear
3:15 PM 71.6 °F - 37.4 °F 29% 29.62 in 10.0 mi South 15.0 mph 19.6 mph N/A   Clear
3:35 PM 71.6 °F - 37.4 °F 29% 29.61 in 10.0 mi SSE 12.7 mph 18.4 mph N/A   Clear
3:55 PM 73.4 °F - 39.2 °F 29% 29.60 in 10.0 mi SSE 11.5 mph 18.4 mph N/A   Clear
4:15 PM 73.4 °F - 39.2 °F 29% 29.58 in 10.0 mi South 15.0 mph 19.6 mph N/A   Clear
4:35 PM 73.4 °F - 37.4 °F 27% 29.57 in 10.0 mi SSW 16.1 mph 19.6 mph N/A   Clear
4:55 PM 73.4 °F - 39.2 °F 29% 29.56 in 10.0 mi SSW 17.3 mph - N/A   Clear
5:15 PM 73.4 °F - 39.2 °F 29% 29.55 in 10.0 mi SSW 18.4 mph 21.9 mph N/A   Clear
5:35 PM 73.4 °F - 41.0 °F 31% 29.55 in 10.0 mi SSW 17.3 mph 21.9 mph N/A   Clear
5:55 PM 73.4 °F - 41.0 °F 31% 29.55 in 10.0 mi SSW 17.3 mph 21.9 mph N/A   Clear
6:15 PM 73.4 °F - 41.0 °F 31% 29.54 in 10.0 mi SSW 15.0 mph 24.2 mph N/A   Clear
6:35 PM 71.6 °F - 39.2 °F 31% 29.53 in 10.0 mi SSW 13.8 mph - N/A   Clear
6:55 PM 71.6 °F - 41.0 °F 33% 29.52 in 10.0 mi South 10.4 mph - N/A   Clear
7:15 PM 68.0 °F - 42.8 °F 40% 29.52 in 10.0 mi South 9.2 mph - N/A   Clear
7:35 PM 69.8 °F - 41.0 °F 35% 29.51 in 10.0 mi SSE 10.4 mph - N/A   Scattered Clouds
7:55 PM 68.0 °F - 41.0 °F 37% 29.50 in 10.0 mi SSE 9.2 mph - N/A   Partly Cloudy
8:15 PM 66.2 °F - 42.8 °F 43% 29.49 in 10.0 mi SSE 9.2 mph - N/A   Partly Cloudy
8:35 PM 66.2 °F - 41.0 °F 40% 29.49 in 10.0 mi SSE 10.4 mph - N/A   Clear
8:55 PM 64.4 °F - 42.8 °F 45% 29.48 in 10.0 mi SSE 11.5 mph - N/A   Clear
9:15 PM 64.4 °F - 44.6 °F 49% 29.47 in 10.0 mi SSE 12.7 mph - N/A   Clear
9:35 PM 64.4 °F - 44.6 °F 49% 29.46 in 10.0 mi SSE 12.7 mph - N/A   Clear
10:15 PM 62.6 °F - 44.6 °F 52% 29.45 in 10.0 mi SSE 12.7 mph - N/A   Clear
10:35 PM 62.6 °F - 44.6 °F 52% 29.44 in 10.0 mi SSE 10.4 mph - N/A   Clear
10:55 PM 62.6 °F - 46.4 °F 55% 29.43 in 10.0 mi SSE 9.2 mph - N/A   Clear
11:15 PM 62.6 °F - 46.4 °F 55% 29.42 in 10.0 mi SSE 9.2 mph - N/A   Clear
11:35 PM 62.6 °F - 46.4 °F 55% 29.41 in 10.0 mi SSE 11.5 mph - N/A   Clear
11:55 PM 62.6 °F - 46.4 °F 55% 29.40 in 10.0 mi SSE 11.5 mph 18.4 mph N/A   Clear